Location: Cabeza de los Veneras
(40.2000°N, 5.2000°W)
Time: 05:29:14
(UTC+00:00)

Okean 2 Rocket - Visible Passes

Search period start: 13 July 2024 00:00
Search period end: 23 July 2024 00:00
Orbit: 615 x 636 km, 82.5° (Epoch: 12 July)

Date Brightness Start Highest point End Pass type
(mag) Time Alt. Az. Time Alt. Az. Time Alt. Az.
13 Jul 3.2 20:53:16 10° N 20:57:48 84° W 21:02:15 10° S visible
14 Jul 4.3 21:12:56 10° NNW 21:17:10 41° W 21:21:21 10° SSW visible
15 Jul 5.4 21:33:02 10° NW 21:36:25 21° W 21:39:47 10° SW visible
16 Jul 6.1 21:54:30 10° WNW 21:55:34 11° W 21:56:37 10° W visible
17 Jul 3.6 20:33:11 10° NNW 20:37:38 64° W 20:42:02 10° S visible
18 Jul 4.9 20:52:59 10° NNW 20:56:58 32° W 21:00:54 10° SSW visible
19 Jul 5.8 21:13:22 10° NW 21:16:10 16° W 21:18:57 10° SW visible
21 Jul 4.2 20:13:08 10° NNW 20:17:27 48° W 20:21:43 10° SSW visible
22 Jul 5.4 20:33:06 10° NW 20:36:43 24° W 20:40:18 10° SW visible
